contact:dominique.lefevre@mio.osupytheas.fr, maurice.libes@osupytheas.fr, didier.mallarino@osupytheas.fr
Project:EMSO http://www.emso-fr.org/EMSO-France
Depth: 2436.0 m
Title:EMSO Ligure Ouest : Data MII capteur AQUADOPP
Date,Latitude,Longitude,X_East,Y_North,Z_Up,Amplitude_X,Amplitude_Y,Amplitude_Z,Batterie,SoundSpeed,Heading,Pitch,Roll,Pressure,TIS,Speed,Direction
, degrees North, degrees East, m.s-1, m.s-1,m.s-1, 1, 1, 1, Volt, m.s-1, degree, degree, degree, dbar, degree_C, m.s-1, degree
2021-05-05T00:04:03,42.805,6.029,0.069,-0.036,0.013,102.0,102.0,100.0,13.4,1505.2,327.9,-0.7,1.8,2470.569,13.28,0.077,117.6
2021-05-05T00:07:03,42.805,6.029,0.049,-0.042,0.025,101.0,103.0,100.0,13.4,1505.2,328.0,-0.7,1.8,2470.579,13.28,0.064,130.6
2021-05-05T00:10:03,42.805,6.029,0.045,-0.036,-0.008,102.0,102.0,101.0,13.4,1505.2,327.8,-0.8,1.8,2470.533,13.28,0.057,128.7
2021-05-05T00:13:03,42.805,6.029,0.06,-0.028,0.033,102.0,102.0,101.0,13.4,1505.2,327.3,-0.8,1.8,2470.549,13.28,0.066,115.0
2021-05-05T00:16:03,42.805,6.029,0.067,-0.043,0.003,102.0,102.0,100.0,13.4,1505.2,327.7,-0.7,1.8,2470.553,13.28,0.079,122.7
2021-05-05T00:19:03,42.805,6.029,0.071,-0.047,-0.005,102.0,102.0,101.0,13.4,1505.2,327.5,-0.7,1.8,2470.554,13.28,0.085,123.5
2021-05-05T00:22:03,42.805,6.029,0.067,-0.042,0.019,102.0,103.0,101.0,13.3,1505.2,325.1,-0.7,1.8,2470.513,13.28,0.079,122.1
2021-05-05T00:25:03,42.805,6.029,0.038,-0.039,-0.007,101.0,103.0,101.0,13.4,1505.2,326.0,-0.7,1.8,2470.56,13.28,0.054,135.7
2021-05-05T00:28:03,42.805,6.029,0.062,-0.039,-0.003,103.0,102.0,100.0,13.4,1505.2,329.1,-0.8,1.8,2470.55,13.28,0.073,122.2
2021-05-05T00:31:03,42.805,6.029,0.066,-0.015,0.023,102.0,102.0,100.0,13.4,1505.2,323.9,-0.8,1.9,2470.573,13.28,0.067,102.8
2021-05-05T00:34:03,42.805,6.029,0.035,-0.034,-0.003,103.0,101.0,101.0,13.4,1505.2,328.2,-0.8,1.9,2470.53,13.28,0.048,134.2
2021-05-05T00:37:03,42.805,6.029,0.048,-0.045,-0.021,102.0,103.0,101.0,13.4,1505.2,325.2,-0.7,1.8,2470.571,13.28,0.065,133.1
2021-05-05T00:40:03,42.805,6.029,0.064,-0.057,0.006,102.0,102.0,102.0,13.3,1505.2,329.2,-0.8,1.8,2470.556,13.28,0.085,131.7
2021-05-05T00:43:03,42.805,6.029,0.059,-0.037,0.039,103.0,103.0,103.0,13.4,1505.2,326.9,-0.8,1.8,2470.538,13.28,0.069,122.1
2021-05-05T00:46:03,42.805,6.029,0.059,-0.055,0.017,102.0,103.0,101.0,13.4,1505.2,326.0,-0.7,1.8,2470.559,13.28,0.08,133.0
2021-05-05T00:49:03,42.805,6.029,0.049,-0.059,-0.004,101.0,101.0,101.0,13.4,1505.2,325.2,-0.7,1.8,2470.575,13.28,0.076,140.3
2021-05-05T00:52:03,42.805,6.029,0.063,-0.044,0.035,103.0,102.0,100.0,13.4,1505.2,325.2,-0.8,1.8,2470.61,13.28,0.076,124.9
2021-05-05T00:55:03,42.805,6.029,0.056,-0.053,0.016,102.0,102.0,102.0,13.4,1505.2,328.8,-0.8,1.8,2470.55,13.28,0.077,133.4
2021-05-05T00:58:03,42.805,6.029,0.05,-0.031,0.019,102.0,103.0,101.0,13.4,1505.2,328.3,-0.8,1.8,2470.561,13.28,0.058,121.8
2021-05-05T01:04:03,42.805,6.029,0.014,-0.042,-0.002,102.0,101.0,101.0,13.4,1505.2,326.8,-0.8,1.8,2470.582,13.28,0.044,161.6
2021-05-05T01:07:03,42.805,6.029,0.061,-0.045,0.006,102.0,102.0,102.0,13.4,1505.2,326.3,-0.7,1.8,2470.569,13.28,0.075,126.4
2021-05-05T01:10:03,42.805,6.029,0.057,-0.036,0.002,102.0,103.0,101.0,13.3,1505.2,326.4,-0.7,1.8,2470.584,13.28,0.067,122.3
2021-05-05T01:13:03,42.805,6.029,0.055,-0.013,0.022,102.0,102.0,101.0,13.4,1505.2,325.6,-0.8,1.8,2470.593,13.28,0.056,103.3
2021-05-05T01:16:03,42.805,6.029,0.061,-0.024,0.011,103.0,101.0,102.0,13.3,1505.2,327.9,-0.8,1.8,2470.574,13.28,0.065,111.5
2021-05-05T01:19:03,42.805,6.029,0.044,-0.024,-0.003,103.0,102.0,100.0,13.4,1505.2,328.8,-0.7,1.8,2470.552,13.28,0.05,118.6
2021-05-05T01:22:03,42.805,6.029,0.065,-0.062,-0.021,104.0,103.0,100.0,13.4,1505.2,325.7,-0.7,1.8,2470.589,13.28,0.089,133.6
2021-05-05T01:25:03,42.805,6.029,0.066,-0.05,0.014,104.0,102.0,101.0,13.4,1505.2,328.3,-0.7,1.8,2470.586,13.28,0.082,127.1
2021-05-05T01:28:03,42.805,6.029,0.059,-0.036,-0.007,103.0,101.0,100.0,13.4,1505.2,325.4,-0.8,1.8,2470.591,13.28,0.069,121.4
2021-05-05T01:31:03,42.805,6.029,0.04,-0.016,0.02,103.0,103.0,101.0,13.3,1505.2,327.0,-0.7,1.8,2470.588,13.28,0.043,111.8
2021-05-05T01:34:03,42.805,6.029,0.04,-0.036,-0.013,101.0,103.0,101.0,13.4,1505.2,328.7,-0.7,1.8,2470.561,13.28,0.053,132.0
2021-05-05T01:37:03,42.805,6.029,0.052,-0.049,-0.001,102.0,104.0,101.0,13.4,1505.2,327.2,-0.8,1.8,2470.598,13.28,0.071,133.3
2021-05-05T01:40:03,42.805,6.029,0.04,-0.04,-0.002,101.0,102.0,101.0,13.4,1505.2,326.7,-0.7,1.8,2470.559,13.28,0.056,135.0
2021-05-05T01:43:03,42.805,6.029,0.072,-0.022,0.014,102.0,103.0,102.0,13.3,1505.2,325.6,-0.7,1.8,2470.555,13.28,0.075,107.0
2021-05-05T01:46:03,42.805,6.029,0.028,-0.028,0.032,102.0,103.0,101.0,13.4,1505.2,327.9,-0.8,1.8,2470.609,13.28,0.039,135.0
2021-05-05T01:49:03,42.805,6.029,0.04,-0.066,0.001,103.0,103.0,100.0,13.4,1505.2,329.0,-0.7,1.8,2470.583,13.28,0.077,148.8
2021-05-05T01:52:03,42.805,6.029,0.045,-0.036,0.016,102.0,102.0,101.0,13.3,1505.2,327.2,-0.8,1.8,2470.575,13.28,0.057,128.7
2021-05-05T01:55:03,42.805,6.029,0.071,-0.04,0.026,102.0,103.0,101.0,13.4,1505.2,326.8,-0.7,1.8,2470.579,13.28,0.081,119.4
2021-05-05T01:58:03,42.805,6.029,0.064,-0.035,0.031,102.0,101.0,102.0,13.4,1505.2,327.5,-0.7,1.8,2470.538,13.28,0.072,118.7
2021-05-05T02:04:03,42.805,6.029,0.054,-0.026,0.025,102.0,102.0,101.0,13.4,1505.2,327.3,-0.8,1.8,2470.581,13.28,0.059,115.7
2021-05-05T02:07:03,42.805,6.029,0.056,-0.046,-0.024,103.0,102.0,100.0,13.3,1505.2,326.4,-0.8,1.8,2470.565,13.28,0.072,129.4
2021-05-05T02:10:03,42.805,6.029,0.055,-0.038,0.009,101.0,104.0,101.0,13.3,1505.2,325.5,-0.8,1.8,2470.609,13.28,0.066,124.6
2021-05-05T02:13:03,42.805,6.029,0.053,-0.002,0.017,101.0,103.0,102.0,13.4,1505.2,323.9,-0.7,1.8,2470.61,13.28,0.053,92.2
2021-05-05T02:16:03,42.805,6.029,0.056,-0.057,-0.006,103.0,102.0,102.0,13.4,1505.2,327.6,-0.7,1.9,2470.616,13.28,0.079,135.5
2021-05-05T02:19:03,42.805,6.029,0.044,-0.024,0.016,102.0,102.0,102.0,13.4,1505.2,326.1,-0.8,1.8,2470.6,13.28,0.05,118.6
2021-05-05T02:22:03,42.805,6.029,0.055,-0.056,-0.007,102.0,101.0,101.0,13.4,1505.2,327.3,-0.8,1.8,2470.615,13.28,0.078,135.5
2021-05-05T02:25:03,42.805,6.029,0.043,-0.04,0.006,102.0,100.0,101.0,13.4,1505.2,326.8,-0.7,1.8,2470.575,13.28,0.058,132.9
2021-05-05T02:28:03,42.805,6.029,0.043,-0.028,0.018,103.0,102.0,101.0,13.4,1505.2,326.5,-0.8,1.8,2470.57,13.28,0.051,123.1
2021-05-05T02:31:03,42.805,6.029,0.057,-0.035,0.013,101.0,103.0,101.0,13.4,1505.2,328.3,-0.7,1.8,2470.609,13.28,0.066,121.6
2021-05-05T02:34:03,42.805,6.029,0.041,-0.042,-0.006,102.0,103.0,101.0,13.4,1505.2,326.8,-0.8,1.8,2470.581,13.28,0.058,135.7
2021-05-05T02:37:03,42.805,6.029,0.044,-0.054,-0.026,102.0,103.0,101.0,13.4,1505.2,328.3,-0.7,1.8,2470.585,13.28,0.069,140.8
2021-05-05T02:40:03,42.805,6.029,0.042,-0.032,0.01,101.0,103.0,101.0,13.3,1505.2,325.1,-0.7,1.8,2470.663,13.28,0.052,127.3
2021-05-05T02:43:03,42.805,6.029,0.056,-0.025,0.038,102.0,103.0,100.0,13.4,1505.2,327.5,-0.8,1.8,2470.607,13.28,0.061,114.1
2021-05-05T02:46:03,42.805,6.029,0.039,-0.016,0.03,104.0,103.0,101.0,13.4,1505.2,325.8,-0.8,1.9,2470.583,13.28,0.042,112.3
2021-05-05T02:49:03,42.805,6.029,0.054,-0.056,0.038,104.0,101.0,101.0,13.4,1505.2,329.2,-0.8,1.8,2470.595,13.28,0.077,136.0
2021-05-05T02:52:03,42.805,6.029,0.049,-0.011,0.003,102.0,103.0,101.0,13.4,1505.2,327.0,-0.8,1.8,2470.564,13.28,0.05,102.7
2021-05-05T02:55:03,42.805,6.029,0.055,-0.026,0.02,101.0,104.0,102.0,13.4,1505.2,324.4,-0.7,1.8,2470.601,13.28,0.06,115.3
2021-05-05T02:58:03,42.805,6.029,0.063,-0.028,-0.005,103.0,101.0,101.0,13.4,1505.2,324.6,-0.8,1.8,2470.589,13.28,0.068,114.0
2021-05-05T03:04:03,42.805,6.029,0.056,-0.039,0.019,102.0,103.0,100.0,13.3,1505.2,326.5,-0.7,1.8,2470.633,13.28,0.068,124.9
2021-05-05T03:07:03,42.805,6.029,0.066,-0.027,0.032,102.0,102.0,101.0,13.4,1505.2,327.2,-0.8,1.8,2470.594,13.28,0.071,112.2
2021-05-05T03:10:03,42.805,6.029,0.057,-0.023,0.027,102.0,102.0,101.0,13.4,1505.2,324.2,-0.8,1.8,2470.601,13.28,0.061,112.0
2021-05-05T03:13:03,42.805,6.029,0.046,-0.022,0.028,101.0,102.0,101.0,13.3,1505.2,323.8,-0.8,1.8,2470.63,13.28,0.05,115.6
2021-05-05T03:16:03,42.805,6.029,0.058,-0.035,0.035,102.0,103.0,101.0,13.4,1505.2,327.1,-0.7,1.8,2470.593,13.28,0.067,121.1
2021-05-05T03:19:03,42.805,6.029,0.03,-0.048,0.007,102.0,102.0,101.0,13.3,1505.2,328.0,-0.8,1.8,2470.632,13.28,0.056,148.0
2021-05-05T03:22:03,42.805,6.029,0.064,-0.045,-0.01,102.0,103.0,101.0,13.4,1505.2,326.7,-0.8,1.8,2470.558,13.28,0.078,125.1
2021-05-05T03:25:03,42.805,6.029,0.032,-0.052,-0.005,103.0,102.0,101.0,13.4,1505.2,324.4,-0.8,1.8,2470.574,13.28,0.061,148.4
2021-05-05T03:28:03,42.805,6.029,0.041,-0.026,0.021,104.0,103.0,101.0,13.3,1505.2,326.1,-0.7,1.8,2470.581,13.28,0.048,122.4
2021-05-05T03:31:03,42.805,6.029,0.052,-0.038,0.007,103.0,103.0,100.0,13.4,1505.2,325.6,-0.8,1.8,2470.585,13.28,0.064,126.2
2021-05-05T03:34:03,42.805,6.029,0.056,-0.025,0.033,102.0,101.0,101.0,13.3,1505.2,327.7,-0.8,1.9,2470.591,13.28,0.061,114.1
2021-05-05T03:37:03,42.805,6.029,0.036,-0.021,0.03,102.0,101.0,101.0,13.4,1505.2,327.5,-0.8,1.8,2470.575,13.28,0.041,120.3
2021-05-05T03:40:03,42.805,6.029,0.05,-0.042,0.02,103.0,102.0,101.0,13.4,1505.2,326.8,-0.7,1.9,2470.588,13.28,0.065,130.0
2021-05-05T03:43:03,42.805,6.029,0.035,-0.027,0.032,102.0,102.0,101.0,13.4,1505.2,325.0,-0.8,1.8,2470.561,13.28,0.044,127.7
2021-05-05T03:46:03,42.805,6.029,0.041,-0.056,-0.008,103.0,103.0,101.0,13.4,1505.2,327.3,-0.7,1.8,2470.583,13.28,0.069,143.8
2021-05-05T03:49:03,42.805,6.029,0.046,-0.031,0.013,103.0,103.0,101.0,13.4,1505.2,324.5,-0.7,1.8,2470.557,13.28,0.055,124.0
2021-05-05T03:52:03,42.805,6.029,0.031,-0.045,0.003,102.0,102.0,101.0,13.4,1505.2,324.5,-0.8,1.8,2470.594,13.28,0.054,145.4
2021-05-05T03:55:03,42.805,6.029,0.053,-0.035,-0.011,102.0,102.0,101.0,13.4,1505.2,325.2,-0.8,1.8,2470.585,13.28,0.063,123.4
2021-05-05T03:58:03,42.805,6.029,0.03,-0.052,0.019,102.0,103.0,101.0,13.3,1505.2,326.3,-0.7,1.8,2470.594,13.28,0.06,150.0
2021-05-05T04:04:03,42.805,6.029,0.021,-0.033,-0.046,103.0,103.0,102.0,13.3,1505.2,326.8,-0.8,1.8,2470.619,13.28,0.039,147.5
2021-05-05T04:07:03,42.805,6.029,0.027,-0.024,0.041,103.0,102.0,102.0,13.3,1505.2,327.9,-0.8,1.8,2470.567,13.28,0.036,131.6
2021-05-05T04:10:03,42.805,6.029,0.048,-0.021,0.028,101.0,102.0,101.0,13.3,1505.2,327.0,-0.8,1.8,2470.595,13.28,0.052,113.6
2021-05-05T04:13:03,42.805,6.029,0.02,-0.031,-0.033,102.0,102.0,101.0,13.4,1505.2,328.0,-0.8,1.8,2470.62,13.28,0.036,147.2
2021-05-05T04:16:03,42.805,6.029,0.043,-0.043,0.022,102.0,102.0,101.0,13.3,1505.2,327.5,-0.8,1.8,2470.595,13.28,0.06,135.0
2021-05-05T04:19:03,42.805,6.029,0.043,-0.019,0.035,102.0,103.0,99.0,13.4,1505.2,324.1,-0.8,1.8,2470.612,13.28,0.047,113.8
2021-05-05T04:22:03,42.805,6.029,0.026,-0.029,0.008,101.0,103.0,100.0,13.4,1505.2,325.0,-0.8,1.8,2470.574,13.28,0.038,138.1
2021-05-05T04:25:03,42.805,6.029,0.031,-0.034,-0.022,102.0,101.0,101.0,13.4,1505.2,324.2,-0.8,1.8,2470.601,13.28,0.046,137.6
2021-05-05T04:28:03,42.805,6.029,0.031,-0.043,-0.01,102.0,102.0,103.0,13.4,1505.2,327.0,-0.7,1.8,2470.595,13.28,0.053,144.2
2021-05-05T04:31:03,42.805,6.029,0.027,-0.038,0.03,101.0,103.0,101.0,13.4,1505.2,328.6,-0.8,1.8,2470.588,13.28,0.046,144.6
2021-05-05T04:34:03,42.805,6.029,0.053,-0.022,0.002,102.0,103.0,101.0,13.4,1505.2,324.2,-0.7,1.8,2470.584,13.28,0.057,112.5
2021-05-05T04:37:03,42.805,6.029,0.017,-0.04,-0.001,103.0,104.0,101.0,13.4,1505.2,327.1,-0.8,1.8,2470.57,13.28,0.043,157.0
2021-05-05T04:40:03,42.805,6.029,0.03,-0.034,0.04,103.0,104.0,101.0,13.4,1505.2,329.2,-0.8,1.8,2470.554,13.28,0.045,138.6
2021-05-05T04:43:03,42.805,6.029,0.022,-0.041,-0.003,102.0,102.0,101.0,13.4,1505.2,327.1,-0.7,1.8,2470.538,13.28,0.046,151.8
2021-05-05T04:46:03,42.805,6.029,0.045,-0.035,0.013,102.0,102.0,102.0,13.4,1505.2,329.5,-0.7,1.8,2470.582,13.28,0.057,127.9
2021-05-05T04:49:03,42.805,6.029,0.029,-0.024,0.025,102.0,103.0,101.0,13.4,1505.2,324.0,-0.7,1.8,2470.595,13.28,0.037,129.6
2021-05-05T04:52:03,42.805,6.029,0.041,-0.041,-0.005,102.0,102.0,101.0,13.3,1505.2,327.9,-0.7,1.8,2470.584,13.28,0.057,135.0
2021-05-05T04:55:03,42.805,6.029,0.029,-0.032,0.007,102.0,105.0,101.0,13.3,1505.2,325.8,-0.8,1.8,2470.552,13.28,0.043,137.8
2021-05-05T04:58:03,42.805,6.029,0.045,-0.031,0.025,102.0,103.0,101.0,13.3,1505.2,327.5,-0.7,1.8,2470.561,13.28,0.054,124.6
2021-05-05T05:04:03,42.805,6.029,0.02,-0.026,0.04,104.0,103.0,101.0,13.4,1505.2,325.3,-0.8,1.8,2470.605,13.28,0.032,142.4
2021-05-05T05:07:03,42.805,6.029,0.034,-0.038,0.013,102.0,102.0,101.0,13.3,1505.2,325.6,-0.7,1.8,2470.581,13.28,0.05,138.2
2021-05-05T05:10:03,42.805,6.029,0.026,-0.029,0.002,103.0,102.0,101.0,13.4,1505.2,325.2,-0.8,1.8,2470.562,13.28,0.038,138.1
2021-05-05T05:13:03,42.805,6.029,0.036,-0.031,0.019,102.0,102.0,101.0,13.4,1505.2,326.5,-0.8,1.9,2470.584,13.28,0.047,130.7
2021-05-05T05:16:03,42.805,6.029,0.014,-0.015,0.015,103.0,103.0,101.0,13.3,1505.2,324.5,-0.7,1.8,2470.589,13.28,0.02,137.0
2021-05-05T05:19:03,42.805,6.029,0.034,-0.043,-0.026,102.0,103.0,101.0,13.4,1505.2,327.4,-0.8,1.8,2470.558,13.28,0.054,141.7
2021-05-05T05:22:03,42.805,6.029,0.028,-0.036,-0.006,103.0,104.0,101.0,13.4,1505.2,325.5,-0.8,1.8,2470.569,13.28,0.045,142.1
2021-05-05T05:25:03,42.805,6.029,0.043,-0.026,0.0,103.0,104.0,101.0,13.4,1505.2,326.0,-0.8,1.8,2470.569,13.28,0.05,121.2
2021-05-05T05:28:03,42.805,6.029,0.017,-0.028,-0.033,102.0,102.0,101.0,13.4,1505.2,325.1,-0.8,1.8,2470.527,13.28,0.032,148.7
2021-05-05T05:31:03,42.805,6.029,0.028,-0.03,0.008,102.0,103.0,102.0,13.4,1505.2,325.9,-0.7,1.8,2470.54,13.28,0.041,137.0
2021-05-05T05:34:03,42.805,6.029,0.043,-0.031,0.035,102.0,104.0,100.0,13.3,1505.2,325.0,-0.7,1.8,2470.606,13.28,0.053,125.8
2021-05-05T05:37:03,42.805,6.029,0.022,-0.025,0.036,102.0,103.0,102.0,13.4,1505.2,325.6,-0.7,1.8,2470.577,13.28,0.033,138.7
2021-05-05T05:40:03,42.805,6.029,0.04,-0.01,0.022,102.0,103.0,102.0,13.4,1505.2,327.3,-0.7,1.8,2470.574,13.28,0.041,104.0
2021-05-05T05:43:03,42.805,6.029,0.043,-0.034,0.057,102.0,102.0,101.0,13.3,1505.2,324.3,-0.8,1.9,2470.556,13.28,0.054,128.3
2021-05-05T05:46:03,42.805,6.029,0.031,-0.046,-0.019,102.0,103.0,101.0,13.4,1505.2,328.7,-0.8,1.8,2470.571,13.28,0.055,146.0
2021-05-05T05:49:03,42.805,6.029,0.038,-0.041,0.004,102.0,103.0,101.0,13.4,1505.2,327.8,-0.8,1.8,2470.609,13.28,0.055,137.2
2021-05-05T05:52:03,42.805,6.029,0.029,-0.035,0.007,102.0,103.0,102.0,13.4,1505.2,326.4,-0.7,1.8,2470.547,13.28,0.045,140.4
2021-05-05T05:55:03,42.805,6.029,0.067,-0.036,0.021,103.0,103.0,102.0,13.3,1505.2,324.6,-0.7,1.8,2470.537,13.28,0.076,118.3
2021-05-05T05:58:03,42.805,6.029,0.014,-0.04,0.023,102.0,103.0,101.0,13.4,1505.2,326.3,-0.7,1.8,2470.569,13.28,0.042,160.7
2021-05-05T06:04:03,42.805,6.029,0.029,-0.029,0.02,103.0,103.0,100.0,13.4,1505.2,325.6,-0.7,1.8,2470.559,13.28,0.041,135.0
2021-05-05T06:07:03,42.805,6.029,0.014,-0.03,0.017,102.0,102.0,102.0,13.4,1505.2,327.5,-0.7,1.8,2470.522,13.28,0.033,155.0
2021-05-05T06:10:03,42.805,6.029,0.025,-0.029,-0.012,102.0,102.0,101.0,13.3,1505.2,326.6,-0.7,1.8,2470.581,13.28,0.038,139.2
2021-05-05T06:13:03,42.805,6.029,0.039,-0.039,0.011,103.0,102.0,101.0,13.4,1505.2,328.1,-0.7,1.8,2470.521,13.28,0.055,135.0
2021-05-05T06:16:03,42.805,6.029,0.03,-0.036,-0.011,103.0,102.0,101.0,13.3,1505.2,327.8,-0.8,1.8,2470.539,13.28,0.046,140.2
2021-05-05T06:19:03,42.805,6.029,0.049,-0.029,0.005,102.0,103.0,102.0,13.4,1505.2,323.8,-0.8,1.8,2470.533,13.28,0.056,120.6
2021-05-05T06:22:03,42.805,6.029,0.038,-0.031,-0.024,100.0,104.0,102.0,13.4,1505.2,325.6,-0.7,1.9,2470.543,13.28,0.049,129.2
2021-05-05T06:25:03,42.805,6.029,0.012,-0.021,0.03,103.0,102.0,100.0,13.3,1505.2,324.1,-0.7,1.8,2470.5,13.28,0.024,150.3
2021-05-05T06:28:03,42.805,6.029,0.049,-0.023,0.042,103.0,104.0,101.0,13.4,1505.2,327.9,-0.7,1.8,2470.545,13.28,0.054,115.1
2021-05-05T06:31:03,42.805,6.029,0.027,-0.018,0.024,103.0,102.0,101.0,13.4,1505.2,325.3,-0.7,1.8,2470.523,13.28,0.032,123.7
2021-05-05T06:34:03,42.805,6.029,0.041,-0.025,0.034,103.0,102.0,102.0,13.4,1505.2,326.7,-0.7,1.8,2470.514,13.28,0.048,121.4
2021-05-05T06:37:03,42.805,6.029,0.044,-0.047,0.006,104.0,102.0,101.0,13.4,1505.2,327.5,-0.7,1.8,2470.522,13.28,0.064,136.9
2021-05-05T06:40:03,42.805,6.029,0.034,-0.033,0.011,102.0,103.0,102.0,13.4,1505.2,325.9,-0.7,1.9,2470.468,13.28,0.047,134.1
2021-05-05T06:43:03,42.805,6.029,0.006,-0.051,-0.025,103.0,103.0,102.0,13.3,1505.2,327.0,-0.8,1.8,2470.476,13.28,0.051,173.3
2021-05-05T06:46:03,42.805,6.029,0.014,-0.039,0.019,103.0,102.0,102.0,13.3,1505.2,326.4,-0.7,1.8,2470.525,13.28,0.041,160.3
2021-05-05T06:49:03,42.805,6.029,0.022,-0.037,0.009,103.0,102.0,102.0,13.4,1505.2,326.9,-0.7,1.8,2470.491,13.28,0.043,149.3
2021-05-05T06:52:03,42.805,6.029,0.045,-0.027,0.007,102.0,102.0,101.0,13.3,1505.2,325.6,-0.8,1.8,2470.484,13.28,0.052,121.0
2021-05-05T06:55:03,42.805,6.029,0.013,-0.031,0.022,102.0,104.0,101.0,13.4,1505.2,325.0,-0.8,1.8,2470.51,13.28,0.033,157.3
2021-05-05T06:58:03,42.805,6.029,0.025,-0.018,-0.009,102.0,102.0,101.0,13.3,1505.2,326.2,-0.7,1.9,2470.515,13.28,0.03,125.8
2021-05-05T07:04:03,42.805,6.029,0.022,-0.026,-0.001,102.0,103.0,101.0,13.4,1505.2,327.8,-0.8,1.8,2470.54,13.28,0.034,139.8
2021-05-05T07:07:03,42.805,6.029,0.017,-0.03,0.0,103.0,103.0,101.0,13.4,1505.2,325.6,-0.8,1.8,2470.526,13.28,0.034,150.5
2021-05-05T07:10:03,42.805,6.029,0.044,-0.034,0.038,103.0,105.0,101.0,13.3,1505.2,325.4,-0.7,1.8,2470.504,13.28,0.055,127.7
2021-05-05T07:13:03,42.805,6.029,0.021,-0.024,0.013,103.0,103.0,102.0,13.3,1505.2,327.6,-0.8,1.8,2470.469,13.28,0.031,138.8
2021-05-05T07:16:03,42.805,6.029,0.052,-0.043,0.018,103.0,103.0,101.0,13.4,1505.2,324.0,-0.7,1.8,2470.505,13.28,0.067,129.6
2021-05-05T07:19:03,42.805,6.029,0.048,-0.047,0.023,102.0,102.0,101.0,13.4,1505.2,325.4,-0.8,1.8,2470.507,13.28,0.067,134.4
2021-05-05T07:22:03,42.805,6.029,0.037,-0.019,0.044,103.0,102.0,101.0,13.4,1505.2,326.4,-0.8,1.8,2470.519,13.28,0.041,117.2
2021-05-05T07:25:03,42.805,6.029,0.029,-0.046,0.02,102.0,103.0,101.0,13.4,1505.2,328.1,-0.7,1.9,2470.476,13.28,0.054,147.8
2021-05-05T07:28:03,42.805,6.029,0.019,-0.021,0.019,103.0,104.0,101.0,13.4,1505.2,327.7,-0.7,1.8,2470.465,13.28,0.028,137.9
2021-05-05T07:31:03,42.805,6.029,0.025,-0.042,-0.019,103.0,104.0,101.0,13.3,1505.2,324.6,-0.8,1.8,2470.523,13.28,0.048,149.2
2021-05-05T07:34:03,42.805,6.029,0.026,-0.04,0.0,103.0,103.0,102.0,13.4,1505.2,323.8,-0.8,1.8,2470.466,13.28,0.047,147.0
2021-05-05T07:37:03,42.805,6.029,0.024,-0.021,0.018,103.0,103.0,101.0,13.4,1505.2,327.1,-0.8,1.8,2470.489,13.28,0.031,131.2
2021-05-05T07:40:03,42.805,6.029,0.018,-0.036,-0.003,103.0,103.0,101.0,13.4,1505.2,326.4,-0.7,1.8,2470.478,13.28,0.04,153.4
2021-05-05T07:43:03,42.805,6.029,0.018,-0.037,0.023,103.0,103.0,101.0,13.4,1505.2,328.2,-0.8,1.8,2470.481,13.28,0.041,154.1
2021-05-05T07:46:03,42.805,6.029,0.05,-0.036,0.029,103.0,103.0,102.0,13.3,1505.2,327.6,-0.8,1.9,2470.46,13.28,0.061,125.8
2021-05-05T07:49:03,42.805,6.029,0.019,-0.034,0.024,102.0,103.0,102.0,13.4,1505.2,327.5,-0.7,1.8,2470.451,13.28,0.038,150.8
2021-05-05T07:52:03,42.805,6.029,0.025,-0.017,-0.015,103.0,103.0,101.0,13.4,1505.2,323.9,-0.7,1.8,2470.435,13.28,0.03,124.2
2021-05-05T07:55:03,42.805,6.029,0.023,-0.039,-0.005,102.0,102.0,102.0,13.3,1505.2,329.1,-0.7,1.8,2470.464,13.28,0.045,149.5
2021-05-05T07:58:03,42.805,6.029,0.031,-0.026,0.009,103.0,103.0,101.0,13.4,1505.2,328.0,-0.7,1.8,2470.477,13.28,0.04,130.0
2021-05-05T08:04:03,42.805,6.029,0.018,-0.035,-0.021,102.0,102.0,101.0,13.4,1505.2,327.4,-0.7,1.8,2470.46,13.28,0.039,152.8
2021-05-05T08:07:03,42.805,6.029,0.065,-0.04,0.028,102.0,105.0,100.0,13.4,1505.2,327.9,-0.7,1.8,2470.512,13.28,0.076,121.6
2021-05-05T08:10:03,42.805,6.029,0.045,-0.016,0.034,102.0,103.0,101.0,13.4,1505.2,325.3,-0.8,1.8,2470.506,13.28,0.047,109.6
2021-05-05T08:13:03,42.805,6.029,0.036,-0.03,0.0,101.0,103.0,101.0,13.4,1505.2,325.1,-0.8,1.8,2470.459,13.28,0.046,129.8
2021-05-05T08:16:03,42.805,6.029,0.032,-0.036,0.004,102.0,104.0,101.0,13.4,1505.2,328.3,-0.8,1.8,2470.445,13.28,0.048,138.4
2021-05-05T08:19:03,42.805,6.029,0.038,-0.03,0.006,102.0,103.0,102.0,13.4,1505.2,326.8,-0.8,1.8,2470.461,13.28,0.048,128.3
2021-05-05T08:22:03,42.805,6.029,0.041,-0.037,0.024,102.0,104.0,101.0,13.3,1505.2,327.8,-0.7,1.8,2470.486,13.28,0.055,132.1
2021-05-05T08:25:03,42.805,6.029,0.024,-0.031,0.034,102.0,103.0,101.0,13.4,1505.2,328.0,-0.7,1.8,2470.44,13.28,0.039,142.3
2021-05-05T08:28:03,42.805,6.029,0.0,-0.024,0.023,102.0,103.0,102.0,13.4,1505.2,327.5,-0.7,1.8,2470.409,13.28,0.024,180.0
2021-05-05T08:31:03,42.805,6.029,0.044,-0.013,0.021,102.0,103.0,101.0,13.3,1505.2,325.9,-0.8,1.8,2470.494,13.28,0.045,106.5
2021-05-05T08:34:03,42.805,6.029,0.033,-0.034,0.006,102.0,103.0,101.0,13.4,1505.2,327.5,-0.7,1.9,2470.441,13.28,0.047,135.9
2021-05-05T08:37:03,42.805,6.029,0.035,-0.028,0.027,103.0,103.0,101.0,13.4,1505.2,325.6,-0.8,1.9,2470.453,13.28,0.044,128.7
2021-05-05T08:40:03,42.805,6.029,0.02,-0.032,0.006,102.0,105.0,100.0,13.4,1505.2,324.1,-0.7,1.8,2470.471,13.28,0.037,148.0
2021-05-05T08:43:03,42.805,6.029,0.021,-0.008,0.0,102.0,102.0,101.0,13.3,1505.2,327.2,-0.7,1.8,2470.434,13.28,0.022,110.9
2021-05-05T08:46:03,42.805,6.029,0.019,-0.027,0.022,103.0,103.0,101.0,13.4,1505.2,325.6,-0.8,1.8,2470.44,13.28,0.033,144.9
2021-05-05T08:49:03,42.805,6.029,0.022,-0.04,-0.026,102.0,103.0,101.0,13.4,1505.2,326.8,-0.8,1.8,2470.408,13.28,0.045,151.2
2021-05-05T08:52:03,42.805,6.029,0.033,-0.044,-0.008,102.0,103.0,101.0,13.4,1505.2,328.7,-0.8,1.8,2470.456,13.28,0.055,143.1
2021-05-05T08:55:03,42.805,6.029,0.042,-0.038,0.006,102.0,103.0,101.0,13.4,1505.2,327.1,-0.7,1.8,2470.44,13.28,0.056,132.1
2021-05-05T08:58:03,42.805,6.029,0.05,-0.035,0.014,103.0,103.0,101.0,13.3,1505.2,326.1,-0.8,1.8,2470.428,13.28,0.061,125.0
2021-05-05T09:04:03,42.805,6.029,0.029,-0.021,0.01,103.0,103.0,101.0,13.4,1505.2,325.9,-0.8,1.8,2470.435,13.28,0.035,125.9
2021-05-05T09:07:03,42.805,6.029,0.039,-0.039,0.015,103.0,103.0,102.0,13.4,1505.2,327.2,-0.7,1.8,2470.49,13.28,0.055,135.0
2021-05-05T09:10:03,42.805,6.029,0.046,-0.016,0.02,103.0,105.0,102.0,13.3,1505.2,324.3,-0.8,1.8,2470.446,13.28,0.048,109.2
2021-05-05T09:13:03,42.805,6.029,0.037,-0.043,0.024,102.0,104.0,100.0,13.4,1505.2,324.3,-0.8,1.8,2470.42,13.28,0.056,139.3
2021-05-05T09:16:03,42.805,6.029,0.024,-0.034,0.0,105.0,104.0,101.0,13.4,1505.2,327.7,-0.7,1.8,2470.401,13.28,0.041,144.8
2021-05-05T09:19:03,42.805,6.029,0.033,-0.026,0.002,102.0,103.0,101.0,13.4,1505.2,325.9,-0.8,1.8,2470.41,13.28,0.042,128.2
2021-05-05T09:22:03,42.805,6.029,0.051,-0.02,0.016,103.0,104.0,101.0,13.3,1505.2,325.5,-0.7,1.8,2470.467,13.28,0.054,111.4
2021-05-05T09:25:03,42.805,6.029,0.045,-0.033,0.019,102.0,103.0,101.0,13.4,1505.2,326.6,-0.7,1.8,2470.422,13.28,0.055,126.3
2021-05-05T09:28:03,42.805,6.029,0.026,-0.036,0.043,103.0,103.0,101.0,13.4,1505.2,327.9,-0.7,1.8,2470.416,13.28,0.044,144.2
2021-05-05T09:31:03,42.805,6.029,0.02,-0.025,0.007,102.0,104.0,101.0,13.4,1505.2,324.3,-0.8,1.8,2470.43,13.28,0.032,141.3
2021-05-05T09:34:03,42.805,6.029,0.026,-0.035,0.042,101.0,103.0,101.0,13.3,1505.2,324.8,-0.8,1.8,2470.46,13.28,0.043,143.4
2021-05-05T09:37:03,42.805,6.029,0.027,-0.02,0.059,101.0,104.0,101.0,13.4,1505.2,325.4,-0.7,1.8,2470.445,13.28,0.033,126.5
2021-05-05T09:40:03,42.805,6.029,0.046,-0.036,0.017,102.0,103.0,101.0,13.4,1505.2,327.2,-0.8,1.8,2470.436,13.28,0.058,128.0
2021-05-05T09:43:03,42.805,6.029,0.055,-0.025,0.045,102.0,104.0,101.0,13.4,1505.2,325.9,-0.8,1.8,2470.447,13.28,0.06,114.4
2021-05-05T09:46:03,42.805,6.029,0.057,-0.025,0.01,103.0,103.0,101.0,13.3,1505.2,327.7,-0.8,1.8,2470.436,13.28,0.062,113.7
2021-05-05T09:49:03,42.805,6.029,0.027,-0.019,0.01,103.0,105.0,100.0,13.4,1505.2,327.6,-0.8,1.8,2470.429,13.28,0.033,125.1
2021-05-05T09:52:03,42.805,6.029,0.029,-0.027,0.004,104.0,103.0,102.0,13.3,1505.2,326.9,-0.7,1.8,2470.411,13.28,0.039,133.0
2021-05-05T09:55:03,42.805,6.029,0.035,-0.02,0.016,103.0,103.0,101.0,13.4,1505.2,325.0,-0.8,1.8,2470.411,13.28,0.04,119.7
2021-05-05T09:58:03,42.805,6.029,0.045,-0.025,0.021,104.0,103.0,102.0,13.4,1505.2,325.0,-0.7,1.8,2470.43,13.28,0.051,119.1